Time,TemperatureF,DewpointF,PressureIn,WindDirection,WindDirectionDegrees,WindSpeedMPH,WindSpeedGustMPH,Humidity,HourlyPrecipIn,Conditions,Clouds,dailyrainin,SoftwareType,DateUTC
2013-01-01 00:03:00,-9.9,-43.8,29.09,ESE,108,0.0,0.0,16,0.00,,,0.00,VWS V13.01,2013-01-01 06:03:00,
2013-01-01 00:08:00,-10.1,-43.9,29.09,ESE,108,0.0,0.0,16,0.00,,,0.00,VWS V13.01,2013-01-01 06:08:00,
2013-01-01 00:13:00,-10.3,-44.1,29.09,ESE,107,0.0,0.0,16,0.00,,,0.00,VWS V13.01,2013-01-01 06:13:00,
2013-01-01 00:18:00,-10.5,-44.2,29.09,ESE,108,0.0,0.0,16,0.00,,,0.00,VWS V13.01,2013-01-01 06:18:00,
2013-01-01 00:23:00,-10.5,-44.2,29.09,ESE,108,0.0,0.0,16,0.00,,,0.00,VWS V13.01,2013-01-01 06:23:00,
2013-01-01 00:28:00,-11.2,-44.8,29.09,ESE,107,0.0,0.0,16,0.00,,,0.00,VWS V13.01,2013-01-01 06:28:00,
2013-01-01 00:33:00,-10.8,-44.5,29.09,ESE,107,0.0,0.0,16,0.00,,,0.00,VWS V13.01,2013-01-01 06:33:00,
2013-01-01 00:38:00,-11.0,-44.7,29.09,ESE,108,0.0,0.0,16,0.00,,,0.00,VWS V13.01,2013-01-01 06:38:00,
2013-01-01 00:43:00,-10.8,-44.5,29.09,ESE,108,0.0,0.0,16,0.00,,,0.00,VWS V13.01,2013-01-01 06:43:00,
2013-01-01 00:48:00,-9.9,-43.8,29.09,ESE,108,0.0,0.0,16,0.00,,,0.00,VWS V13.01,2013-01-01 06:48:00,
2013-01-01 00:53:00,-10.8,-44.5,29.09,ESE,108,0.0,0.0,16,0.00,,,0.00,VWS V13.01,2013-01-01 06:53:00,
2013-01-01 00:58:00,-11.9,-45.4,29.09,ESE,107,0.0,0.0,16,0.00,,,0.00,VWS V13.01,2013-01-01 06:58:00,
2013-01-01 01:03:00,-12.3,-45.8,29.09,ESE,108,0.0,0.0,16,0.00,,,0.00,VWS V13.01,2013-01-01 07:03:00,
2013-01-01 01:08:00,-12.1,-45.6,29.09,ESE,107,0.0,0.0,16,0.00,,,0.00,VWS V13.01,2013-01-01 07:08:00,
2013-01-01 01:13:00,-12.1,-45.6,29.09,ESE,107,0.0,0.0,16,0.00,,,0.00,VWS V13.01,2013-01-01 07:13:00,
2013-01-01 01:18:00,-12.8,-46.2,29.09,ESE,107,0.0,0.0,16,0.00,,,0.00,VWS V13.01,2013-01-01 07:18:00,
2013-01-01 01:23:00,-13.4,-46.7,29.09,ESE,108,0.0,0.0,16,0.00,,,0.00,VWS V13.01,2013-01-01 07:23:00,
2013-01-01 01:28:00,-12.8,-46.2,29.09,ESE,108,0.0,0.0,16,0.00,,,0.00,VWS V13.01,2013-01-01 07:28:00,
2013-01-01 01:33:00,-13.2,-46.5,29.09,ESE,107,0.0,0.0,16,0.00,,,0.00,VWS V13.01,2013-01-01 07:33:00,
2013-01-01 01:38:00,-13.5,-46.8,29.09,ESE,108,0.0,0.0,16,0.00,,,0.00,VWS V13.01,2013-01-01 07:38:00,
2013-01-01 01:43:00,-12.8,-46.2,29.09,ESE,107,0.0,0.0,16,0.00,,,0.00,VWS V13.01,2013-01-01 07:43:00,
2013-01-01 01:48:00,-12.8,-46.2,29.09,ESE,107,0.0,0.0,16,0.00,,,0.00,VWS V13.01,2013-01-01 07:48:00,
2013-01-01 01:53:00,-13.5,-46.8,29.09,ESE,108,0.0,0.0,16,0.00,,,0.00,VWS V13.01,2013-01-01 07:53:00,
2013-01-01 01:58:00,-13.5,-46.8,29.09,ESE,108,0.0,0.0,16,0.00,,,0.00,VWS V13.01,2013-01-01 07:58:00,
2013-01-01 02:03:00,-13.2,-46.5,29.09,ESE,107,0.0,0.0,16,0.00,,,0.00,VWS V13.01,2013-01-01 08:03:00,
2013-01-01 02:08:00,-12.8,-46.2,29.09,ESE,108,0.0,0.0,16,0.00,,,0.00,VWS V13.01,2013-01-01 08:08:00,
2013-01-01 02:13:00,-13.5,-46.8,29.09,ESE,108,0.0,0.0,16,0.00,,,0.00,VWS V13.01,2013-01-01 08:13:00,
2013-01-01 02:18:00,-13.9,-47.1,29.09,ESE,108,0.0,0.0,16,0.00,,,0.00,VWS V13.01,2013-01-01 08:18:00,
2013-01-01 02:23:00,-13.9,-47.1,29.09,ESE,107,0.0,0.0,16,0.00,,,0.00,VWS V13.01,2013-01-01 08:23:00,
2013-01-01 02:28:00,-13.5,-46.8,29.09,ESE,108,0.0,0.0,16,0.00,,,0.00,VWS V13.01,2013-01-01 08:28:00,
2013-01-01 02:33:00,-13.5,-46.8,29.09,ESE,107,0.0,0.0,16,0.00,,,0.00,VWS V13.01,2013-01-01 08:33:00,
2013-01-01 02:38:00,-13.5,-46.8,29.09,ESE,107,0.0,0.0,16,0.00,,,0.00,VWS V13.01,2013-01-01 08:38:00,
2013-01-01 02:43:00,-13.9,-47.1,29.09,ESE,107,0.0,0.0,16,0.00,,,0.00,VWS V13.01,2013-01-01 08:43:00,
2013-01-01 02:48:00,-13.7,-47.0,29.09,ESE,108,0.0,0.0,16,0.00,,,0.00,VWS V13.01,2013-01-01 08:48:00,
2013-01-01 02:53:00,-13.4,-46.7,29.09,ESE,108,0.0,0.0,16,0.00,,,0.00,VWS V13.01,2013-01-01 08:53:00,
2013-01-01 02:58:00,-13.5,-46.8,29.09,ESE,108,0.0,0.0,16,0.00,,,0.00,VWS V13.01,2013-01-01 08:58:00,
2013-01-01 03:03:00,-13.5,-46.8,29.09,ESE,108,0.0,0.0,16,0.00,,,0.00,VWS V13.01,2013-01-01 09:03:00,
2013-01-01 03:08:00,-13.4,-46.7,29.09,ESE,108,0.0,0.0,16,0.00,,,0.00,VWS V13.01,2013-01-01 09:08:00,
2013-01-01 03:13:00,-13.7,-47.0,29.09,ESE,107,0.0,0.0,16,0.00,,,0.00,VWS V13.01,2013-01-01 09:13:00,
2013-01-01 03:18:00,-13.9,-47.1,29.09,ESE,108,0.0,0.0,16,0.00,,,0.00,VWS V13.01,2013-01-01 09:18:00,
2013-01-01 03:23:00,-14.1,-47.2,29.09,ESE,108,0.0,0.0,16,0.00,,,0.00,VWS V13.01,2013-01-01 09:23:00,
2013-01-01 03:28:00,-14.1,-47.2,29.09,ESE,107,0.0,0.0,16,0.00,,,0.00,VWS V13.01,2013-01-01 09:28:00,
2013-01-01 03:33:00,-13.7,-47.0,29.09,ESE,107,0.0,0.0,16,0.00,,,0.00,VWS V13.01,2013-01-01 09:33:00,
2013-01-01 03:38:00,-13.9,-47.1,29.09,ESE,107,0.0,0.0,16,0.00,,,0.00,VWS V13.01,2013-01-01 09:38:00,
2013-01-01 03:43:00,-14.6,-47.7,29.09,ESE,108,0.0,0.0,16,0.00,,,0.00,VWS V13.01,2013-01-01 09:43:00,
2013-01-01 03:48:00,-14.8,-47.8,29.09,ESE,107,0.0,0.0,16,0.00,,,0.00,VWS V13.01,2013-01-01 09:48:00,
2013-01-01 03:53:00,-14.4,-47.5,29.09,ESE,108,0.0,0.0,16,0.00,,,0.00,VWS V13.01,2013-01-01 09:53:00,
2013-01-01 03:58:00,-14.6,-47.7,29.09,ESE,108,0.0,0.0,16,0.00,,,0.00,VWS V13.01,2013-01-01 09:58:00,
2013-01-01 04:03:00,-15.3,-48.3,29.09,ESE,107,0.0,0.0,16,0.00,,,0.00,VWS V13.01,2013-01-01 10:03:00,
2013-01-01 04:08:00,-15.5,-48.5,29.09,ESE,108,0.0,0.0,16,0.00,,,0.00,VWS V13.01,2013-01-01 10:08:00,
2013-01-01 04:13:00,-14.8,-47.8,29.09,ESE,108,0.0,0.0,16,0.00,,,0.00,VWS V13.01,2013-01-01 10:13:00,
2013-01-01 04:18:00,-14.4,-47.5,29.09,ESE,108,0.0,0.0,16,0.00,,,0.00,VWS V13.01,2013-01-01 10:18:00,
2013-01-01 04:23:00,-14.1,-47.2,29.09,ESE,107,0.0,0.0,16,0.00,,,0.00,VWS V13.01,2013-01-01 10:23:00,
2013-01-01 04:28:00,-13.9,-47.1,29.09,ESE,108,0.0,0.0,16,0.00,,,0.00,VWS V13.01,2013-01-01 10:28:00,
2013-01-01 04:33:00,-14.6,-47.7,29.09,ESE,108,0.0,0.0,16,0.00,,,0.00,VWS V13.01,2013-01-01 10:33:00,
2013-01-01 04:38:00,-14.6,-47.7,29.09,ESE,107,0.0,0.0,16,0.00,,,0.00,VWS V13.01,2013-01-01 10:38:00,
2013-01-01 04:44:00,-15.2,-48.2,29.09,ESE,108,0.0,0.0,16,0.00,,,0.00,VWS V13.01,2013-01-01 10:44:00,
2013-01-01 04:49:00,-15.0,-48.0,29.09,ESE,108,0.0,0.0,16,0.00,,,0.00,VWS V13.01,2013-01-01 10:49:00,
2013-01-01 04:54:00,-14.3,-47.4,29.09,ESE,108,0.0,0.0,16,0.00,,,0.00,VWS V13.01,2013-01-01 10:54:00,
2013-01-01 04:59:00,-14.3,-47.4,29.09,ESE,107,0.0,0.0,16,0.00,,,0.00,VWS V13.01,2013-01-01 10:59:00,
2013-01-01 05:03:00,-13.7,-47.0,29.09,ESE,107,0.0,0.0,16,0.00,,,0.00,VWS V13.01,2013-01-01 11:03:00,
2013-01-01 05:09:00,-13.4,-46.7,29.09,ESE,107,0.0,0.0,16,0.00,,,0.00,VWS V13.01,2013-01-01 11:09:00,
2013-01-01 05:14:00,-13.5,-46.8,29.09,ESE,108,0.0,0.0,16,0.00,,,0.00,VWS V13.01,2013-01-01 11:14:00,
2013-01-01 05:19:00,-13.5,-46.8,29.09,ESE,107,0.0,0.0,16,0.00,,,0.00,VWS V13.01,2013-01-01 11:19:00,
2013-01-01 05:24:00,-13.4,-46.7,29.09,ESE,108,0.0,0.0,16,0.00,,,0.00,VWS V13.01,2013-01-01 11:24:00,
2013-01-01 05:29:00,-13.0,-46.3,29.09,ESE,107,0.0,0.0,16,0.00,,,0.00,VWS V13.01,2013-01-01 11:29:00,
2013-01-01 05:34:00,-13.0,-46.3,29.09,ESE,107,0.0,0.0,16,0.00,,,0.00,VWS V13.01,2013-01-01 11:34:00,
2013-01-01 05:39:00,-13.2,-46.5,29.09,ESE,108,0.0,0.0,16,0.00,,,0.00,VWS V13.01,2013-01-01 11:39:00,
2013-01-01 05:44:00,-13.4,-46.7,29.09,ESE,107,0.0,0.0,16,0.00,,,0.00,VWS V13.01,2013-01-01 11:44:00,
2013-01-01 05:49:00,-14.4,-47.5,29.09,ESE,107,0.0,0.0,16,0.00,,,0.00,VWS V13.01,2013-01-01 11:49:00,
2013-01-01 05:54:00,-14.6,-47.7,29.09,ESE,108,0.0,0.0,16,0.00,,,0.00,VWS V13.01,2013-01-01 11:54:00,
2013-01-01 05:59:00,-15.0,-48.0,29.09,ESE,107,0.0,0.0,16,0.00,,,0.00,VWS V13.01,2013-01-01 11:59:00,
2013-01-01 06:04:00,-14.8,-47.8,29.09,ESE,108,0.0,0.0,16,0.00,,,0.00,VWS V13.01,2013-01-01 12:04:00,
2013-01-01 06:09:00,-15.2,-48.2,29.12,ESE,108,0.0,0.0,16,0.00,,,0.00,VWS V13.01,2013-01-01 12:09:00,
2013-01-01 06:14:00,-15.7,-48.6,29.12,ESE,107,0.0,0.0,16,0.00,,,0.00,VWS V13.01,2013-01-01 12:14:00,
2013-01-01 06:19:00,-16.1,-48.9,29.12,ESE,107,0.0,0.0,16,0.00,,,0.00,VWS V13.01,2013-01-01 12:19:00,
2013-01-01 06:24:00,-16.1,-48.9,29.09,ESE,107,0.0,0.0,16,0.00,,,0.00,VWS V13.01,2013-01-01 12:24:00,
2013-01-01 06:29:00,-15.9,-48.8,29.09,ESE,107,0.0,0.0,16,0.00,,,0.00,VWS V13.01,2013-01-01 12:29:00,
2013-01-01 06:34:00,-15.5,-48.5,29.09,ESE,108,0.0,0.0,16,0.00,,,0.00,VWS V13.01,2013-01-01 12:34:00,
2013-01-01 06:39:00,-15.3,-48.3,29.09,ESE,107,0.0,0.0,16,0.00,,,0.00,VWS V13.01,2013-01-01 12:39:00,
2013-01-01 06:44:00,-15.7,-48.6,29.09,ESE,108,0.0,0.0,16,0.00,,,0.00,VWS V13.01,2013-01-01 12:44:00,
2013-01-01 06:49:00,-16.1,-48.9,29.09,ESE,108,0.0,0.0,16,0.00,,,0.00,VWS V13.01,2013-01-01 12:49:00,
2013-01-01 06:54:00,-16.4,-49.2,29.09,ESE,107,0.0,0.0,16,0.00,,,0.00,VWS V13.01,2013-01-01 12:54:00,
2013-01-01 06:59:00,-16.6,-49.4,29.09,ESE,108,0.0,0.0,16,0.00,,,0.00,VWS V13.01,2013-01-01 12:59:00,
2013-01-01 07:04:00,-16.2,-49.1,29.09,ESE,108,0.0,0.0,16,0.00,,,0.00,VWS V13.01,2013-01-01 13:04:00,
2013-01-01 07:09:00,-15.5,-48.5,29.09,ESE,108,0.0,0.0,16,0.00,,,0.00,VWS V13.01,2013-01-01 13:09:00,
2013-01-01 07:14:00,-14.4,-47.5,29.09,East,86,0.0,0.0,16,0.00,,,0.00,VWS V13.01,2013-01-01 13:14:00,
2013-01-01 07:19:00,-13.4,-46.7,29.09,NW,319,0.0,0.0,16,0.00,,,0.00,VWS V13.01,2013-01-01 13:19:00,
2013-01-01 07:24:00,-12.5,-45.9,29.09,WNW,286,0.0,0.0,16,0.00,,,0.00,VWS V13.01,2013-01-01 13:24:00,
2013-01-01 07:29:00,-11.4,-45.0,29.09,WNW,284,0.0,0.0,16,0.00,,,0.00,VWS V13.01,2013-01-01 13:29:00,
2013-01-01 07:34:00,-10.5,-44.2,29.09,WNW,283,0.0,0.0,16,0.00,,,0.00,VWS V13.01,2013-01-01 13:34:00,
2013-01-01 07:39:00,-9.9,-43.8,29.09,WNW,283,0.0,0.0,16,0.00,,,0.00,VWS V13.01,2013-01-01 13:39:00,
2013-01-01 07:44:00,-9.8,-43.6,29.09,WNW,283,0.0,0.0,16,0.00,,,0.00,VWS V13.01,2013-01-01 13:44:00,
2013-01-01 07:49:00,-9.6,-43.5,29.09,WNW,283,0.0,0.0,16,0.00,,,0.00,VWS V13.01,2013-01-01 13:49:00,
2013-01-01 07:54:00,-9.4,-43.3,29.09,West,272,0.0,0.0,16,0.00,,,0.00,VWS V13.01,2013-01-01 13:54:00,
2013-01-01 07:59:00,-9.2,-43.2,29.09,West,272,0.0,0.0,16,0.00,,,0.00,VWS V13.01,2013-01-01 13:59:00,
2013-01-01 08:04:00,-9.4,-43.3,29.09,NW,305,0.0,0.0,16,0.00,,,0.00,VWS V13.01,2013-01-01 14:04:00,
2013-01-01 08:09:00,-9.6,-43.5,29.09,NW,312,0.0,0.0,16,0.00,,,0.00,VWS V13.01,2013-01-01 14:09:00,
2013-01-01 08:14:00,-9.6,-43.5,29.09,NW,311,0.0,0.0,16,0.00,,,0.00,VWS V13.01,2013-01-01 14:14:00,
2013-01-01 08:19:00,-9.4,-43.3,29.09,NW,311,0.0,0.0,16,0.00,,,0.00,VWS V13.01,2013-01-01 14:19:00,
2013-01-01 08:24:00,-8.0,-42.1,29.06,NW,304,0.0,0.0,16,0.00,,,0.00,VWS V13.01,2013-01-01 14:24:00,
2013-01-01 08:29:00,-7.4,-41.7,29.06,NW,304,0.0,0.0,16,0.00,,,0.00,VWS V13.01,2013-01-01 14:29:00,
2013-01-01 08:34:00,-6.7,-41.1,29.06,NW,307,0.0,2.2,16,0.00,,,0.00,VWS V13.01,2013-01-01 14:34:00,
2013-01-01 08:39:00,-6.3,-40.8,29.06,NW,314,2.2,2.2,16,0.00,,,0.00,VWS V13.01,2013-01-01 14:39:00,
2013-01-01 08:44:00,-5.8,-40.3,29.06,NW,314,0.0,0.0,16,0.00,,,0.00,VWS V13.01,2013-01-01 14:44:00,
2013-01-01 08:49:00,-5.1,-39.7,29.06,WNW,303,0.0,0.0,16,0.00,,,0.00,VWS V13.01,2013-01-01 14:49:00,
2013-01-01 08:54:00,-4.0,-38.8,29.06,WNW,288,2.2,2.2,16,0.00,,,0.00,VWS V13.01,2013-01-01 14:54:00,
2013-01-01 08:59:00,-4.4,-39.1,29.06,WNW,288,0.0,0.0,16,0.00,,,0.00,VWS V13.01,2013-01-01 14:59:00,
2013-01-01 09:04:00,-0.6,-36.0,29.06,WNW,297,0.0,0.0,16,0.00,,,0.00,VWS V13.01,2013-01-01 15:04:00,
2013-01-01 09:09:00,1.2,-34.5,29.06,NW,310,2.7,3.1,16,0.00,,,0.00,VWS V13.01,2013-01-01 15:09:00,
2013-01-01 09:14:00,2.7,-33.3,29.06,WNW,299,2.2,2.2,16,0.00,,,0.00,VWS V13.01,2013-01-01 15:14:00,
2013-01-01 09:19:00,3.4,-32.7,29.06,NW,308,2.2,2.7,16,0.00,,,0.00,VWS V13.01,2013-01-01 15:19:00,
2013-01-01 09:24:00,5.0,-31.4,29.06,NW,308,2.2,3.1,16,0.00,,,0.00,VWS V13.01,2013-01-01 15:24:00,
2013-01-01 09:29:00,1.9,-33.9,29.06,NW,314,0.0,3.1,16,0.00,,,0.00,VWS V13.01,2013-01-01 15:29:00,
2013-01-01 09:34:00,1.2,-34.5,29.06,NW,320,3.1,3.6,16,0.00,,,0.00,VWS V13.01,2013-01-01 15:34:00,
2013-01-01 09:39:00,1.0,-34.7,29.06,NW,316,2.7,3.1,16,0.00,,,0.00,VWS V13.01,2013-01-01 15:39:00,
2013-01-01 09:44:00,1.2,-34.5,29.06,NNW,335,3.6,3.6,16,0.00,,,0.00,VWS V13.01,2013-01-01 15:44:00,
2013-01-01 09:49:00,1.6,-34.2,29.06,NNW,343,0.0,2.7,16,0.00,,,0.00,VWS V13.01,2013-01-01 15:49:00,
2013-01-01 09:54:00,2.8,-33.2,29.03,NNE,26,2.7,2.7,16,0.00,,,0.00,VWS V13.01,2013-01-01 15:54:00,
2013-01-01 09:59:00,3.2,-32.8,29.03,NNE,18,2.2,2.2,16,0.00,,,0.00,VWS V13.01,2013-01-01 15:59:00,
2013-01-01 10:04:00,3.6,-32.6,29.03,NNW,345,0.0,0.0,16,0.00,,,0.00,VWS V13.01,2013-01-01 16:04:00,
2013-01-01 10:09:00,3.9,-32.3,29.03,North,349,3.6,3.6,16,0.00,,,0.00,VWS V13.01,2013-01-01 16:09:00,
2013-01-01 10:14:00,4.1,-32.1,29.06,NW,318,0.0,2.2,16,0.00,,,0.00,VWS V13.01,2013-01-01 16:14:00,
2013-01-01 10:19:00,5.0,-31.4,29.06,North,1,2.7,4.0,16,0.00,,,0.00,VWS V13.01,2013-01-01 16:19:00,
2013-01-01 10:24:00,5.4,-31.1,29.06,NNW,341,3.1,3.1,16,0.00,,,0.00,VWS V13.01,2013-01-01 16:24:00,
2013-01-01 10:29:00,5.2,-31.2,29.06,NW,311,3.6,3.6,16,0.00,,,0.00,VWS V13.01,2013-01-01 16:29:00,
2013-01-01 10:34:00,4.6,-31.7,29.06,NW,326,5.8,5.8,16,0.00,,,0.00,VWS V13.01,2013-01-01 16:34:00,
2013-01-01 10:39:00,5.4,-31.1,29.06,North,353,3.6,3.6,16,0.00,,,0.00,VWS V13.01,2013-01-01 16:39:00,
2013-01-01 10:44:00,6.3,-30.3,29.06,NW,324,2.7,2.7,16,0.00,,,0.00,VWS V13.01,2013-01-01 16:44:00,
2013-01-01 10:49:00,6.6,-30.0,29.06,NNW,333,2.7,3.6,16,0.00,,,0.00,VWS V13.01,2013-01-01 16:49:00,
2013-01-01 10:54:00,6.8,-29.9,29.03,NW,322,4.5,4.5,16,0.00,,,0.00,VWS V13.01,2013-01-01 16:54:00,
2013-01-01 10:59:00,6.4,-30.2,29.03,NNW,345,4.0,4.9,16,0.00,,,0.00,VWS V13.01,2013-01-01 16:59:00,
2013-01-01 11:04:00,6.8,-29.9,29.03,NW,322,4.0,4.0,16,0.00,,,0.00,VWS V13.01,2013-01-01 17:04:00,
2013-01-01 11:09:00,7.7,-29.1,29.03,NNW,345,3.1,3.6,16,0.00,,,0.00,VWS V13.01,2013-01-01 17:09:00,
2013-01-01 11:14:00,8.2,-28.7,29.03,NNE,30,4.0,5.8,16,0.00,,,0.00,VWS V13.01,2013-01-01 17:14:00,
2013-01-01 11:19:00,9.0,-28.1,29.03,NW,314,4.0,4.0,16,0.00,,,0.00,VWS V13.01,2013-01-01 17:19:00,
2013-01-01 11:24:00,8.6,-28.4,29.03,North,357,3.1,5.8,16,0.00,,,0.00,VWS V13.01,2013-01-01 17:24:00,
2013-01-01 11:29:00,9.9,-27.3,29.03,NNE,20,3.6,5.4,16,0.00,,,0.00,VWS V13.01,2013-01-01 17:29:00,
2013-01-01 11:34:00,10.4,-26.9,29.03,NE,54,2.7,3.1,16,0.00,,,0.00,VWS V13.01,2013-01-01 17:34:00,
2013-01-01 11:39:00,10.9,-26.4,29.03,NNW,332,3.6,4.9,16,0.00,,,0.00,VWS V13.01,2013-01-01 17:39:00,
2013-01-01 11:44:00,11.7,-25.9,29.03,NNW,332,2.7,4.0,16,0.00,,,0.00,VWS V13.01,2013-01-01 17:44:00,
2013-01-01 11:49:00,11.3,-26.1,29.03,North,353,3.6,3.6,16,0.00,,,0.00,VWS V13.01,2013-01-01 17:49:00,
2013-01-01 11:54:00,11.3,-26.1,29.00,NNW,333,2.2,3.6,16,0.00,,,0.00,VWS V13.01,2013-01-01 17:54:00,
2013-01-01 11:59:00,11.8,-25.7,29.00,NNW,330,3.1,5.4,16,0.00,,,0.00,VWS V13.01,2013-01-01 17:59:00,
2013-01-01 12:04:00,11.7,-25.9,29.00,NNW,327,4.9,4.9,16,0.00,,,0.00,VWS V13.01,2013-01-01 18:04:00,
2013-01-01 12:09:00,11.5,-26.0,29.00,NNE,24,5.4,6.3,16,0.00,,,0.00,VWS V13.01,2013-01-01 18:09:00,
2013-01-01 12:14:00,11.3,-26.1,29.00,NE,38,5.4,5.4,16,0.00,,,0.00,VWS V13.01,2013-01-01 18:14:00,
2013-01-01 12:19:00,10.9,-26.4,29.00,NW,326,4.0,5.8,16,0.00,,,0.00,VWS V13.01,2013-01-01 18:19:00,
2013-01-01 12:24:00,12.0,-25.5,29.00,North,0,3.6,3.6,16,0.00,,,0.00,VWS V13.01,2013-01-01 18:24:00,
2013-01-01 12:29:00,12.4,-25.2,29.00,North,3,4.9,4.9,16,0.00,,,0.00,VWS V13.01,2013-01-01 18:29:00,
2013-01-01 12:34:00,11.8,-25.7,29.00,NW,316,3.1,5.4,16,0.00,,,0.00,VWS V13.01,2013-01-01 18:34:00,
2013-01-01 12:39:00,12.0,-25.5,29.00,NNE,12,2.2,2.2,16,0.00,,,0.00,VWS V13.01,2013-01-01 18:39:00,
2013-01-01 12:44:00,12.0,-25.5,29.00,NW,326,3.1,4.9,16,0.00,,,0.00,VWS V13.01,2013-01-01 18:44:00,
2013-01-01 12:49:00,11.5,-26.0,29.00,North,0,3.1,3.1,16,0.00,,,0.00,VWS V13.01,2013-01-01 18:49:00,
2013-01-01 12:54:00,11.8,-25.7,29.00,NNW,343,2.2,2.2,16,0.00,,,0.00,VWS V13.01,2013-01-01 18:54:00,
2013-01-01 12:59:00,11.8,-25.7,29.00,NNE,12,4.5,6.3,16,0.00,,,0.00,VWS V13.01,2013-01-01 18:59:00,
2013-01-01 13:04:00,11.3,-26.1,29.00,NNW,344,4.9,5.4,16,0.00,,,0.00,VWS V13.01,2013-01-01 19:04:00,
2013-01-01 13:09:00,12.6,-25.1,29.00,NNW,341,2.7,2.7,16,0.00,,,0.00,VWS V13.01,2013-01-01 19:09:00,
2013-01-01 13:14:00,12.2,-25.4,29.00,North,353,3.6,6.3,16,0.00,,,0.00,VWS V13.01,2013-01-01 19:14:00,
2013-01-01 13:19:00,12.0,-25.5,29.00,North,4,3.6,7.6,16,0.00,,,0.00,VWS V13.01,2013-01-01 19:19:00,
2013-01-01 13:24:00,12.0,-25.5,28.97,NW,307,5.4,7.6,16,0.00,,,0.00,VWS V13.01,2013-01-01 19:24:00,
2013-01-01 13:29:00,11.8,-25.7,28.97,North,350,4.9,6.3,16,0.00,,,0.00,VWS V13.01,2013-01-01 19:29:00,
2013-01-01 13:34:00,11.8,-25.7,28.97,NW,322,4.0,4.0,16,0.00,,,0.00,VWS V13.01,2013-01-01 19:34:00,
2013-01-01 13:39:00,11.7,-25.9,28.97,NW,326,2.7,2.7,16,0.00,,,0.00,VWS V13.01,2013-01-01 19:39:00,
2013-01-01 13:44:00,11.3,-26.1,28.97,NNW,331,5.4,5.4,16,0.00,,,0.00,VWS V13.01,2013-01-01 19:44:00,
2013-01-01 13:49:00,11.7,-25.9,28.97,ENE,65,2.7,3.6,16,0.00,,,0.00,VWS V13.01,2013-01-01 19:49:00,
2013-01-01 13:54:00,11.5,-26.0,28.97,North,350,4.0,4.0,16,0.00,,,0.00,VWS V13.01,2013-01-01 19:54:00,
2013-01-01 13:59:00,11.1,-26.3,28.97,NW,322,8.3,8.3,16,0.00,,,0.00,VWS V13.01,2013-01-01 19:59:00,
2013-01-01 14:04:00,11.3,-26.1,28.97,NNE,13,2.7,3.1,16,0.00,,,0.00,VWS V13.01,2013-01-01 20:04:00,
2013-01-01 14:09:00,11.1,-26.3,28.97,North,0,5.8,8.7,16,0.00,,,0.00,VWS V13.01,2013-01-01 20:09:00,
2013-01-01 14:14:00,10.9,-26.4,28.97,NW,320,4.5,5.4,16,0.00,,,0.00,VWS V13.01,2013-01-01 20:14:00,
2013-01-01 14:19:00,10.9,-26.4,28.97,NNE,20,4.0,4.9,16,0.00,,,0.00,VWS V13.01,2013-01-01 20:19:00,
2013-01-01 14:24:00,10.8,-26.6,28.97,NE,37,4.0,5.8,16,0.00,,,0.00,VWS V13.01,2013-01-01 20:24:00,
2013-01-01 14:29:00,10.8,-26.6,28.97,NNW,345,7.6,7.6,16,0.00,,,0.00,VWS V13.01,2013-01-01 20:29:00,
2013-01-01 14:34:00,11.1,-26.3,28.97,NW,322,3.6,3.6,16,0.00,,,0.00,VWS V13.01,2013-01-01 20:34:00,
2013-01-01 14:39:00,11.1,-26.3,28.97,NNW,333,2.2,2.2,16,0.00,,,0.00,VWS V13.01,2013-01-01 20:39:00,
2013-01-01 14:44:00,11.3,-26.1,28.97,East,82,4.0,8.1,16,0.00,,,0.00,VWS V13.01,2013-01-01 20:44:00,
2013-01-01 14:49:00,11.3,-26.1,28.97,NW,320,0.0,3.1,16,0.00,,,0.00,VWS V13.01,2013-01-01 20:49:00,
2013-01-01 14:54:00,11.3,-26.1,28.97,NNE,21,3.1,5.4,16,0.00,,,0.00,VWS V13.01,2013-01-01 20:54:00,
2013-01-01 14:59:00,11.7,-25.9,28.97,NW,311,4.0,5.4,16,0.00,,,0.00,VWS V13.01,2013-01-01 20:59:00,
2013-01-01 15:04:00,11.7,-25.9,28.97,NW,318,3.1,4.9,16,0.00,,,0.00,VWS V13.01,2013-01-01 21:04:00,
2013-01-01 15:09:00,11.3,-26.1,28.97,NW,317,5.8,5.8,16,0.00,,,0.00,VWS V13.01,2013-01-01 21:09:00,
2013-01-01 15:14:00,11.1,-26.3,28.97,NW,326,6.3,6.3,16,0.00,,,0.00,VWS V13.01,2013-01-01 21:14:00,
2013-01-01 15:19:00,11.1,-26.3,28.97,North,353,3.1,6.3,16,0.00,,,0.00,VWS V13.01,2013-01-01 21:19:00,
2013-01-01 15:24:00,11.3,-26.1,28.97,North,357,4.9,4.9,16,0.00,,,0.00,VWS V13.01,2013-01-01 21:24:00,
2013-01-01 15:29:00,11.1,-26.3,28.97,NW,317,6.3,8.1,16,0.00,,,0.00,VWS V13.01,2013-01-01 21:29:00,
2013-01-01 15:34:00,11.1,-26.3,28.97,NNW,333,3.6,5.8,16,0.00,,,0.00,VWS V13.01,2013-01-01 21:34:00,
2013-01-01 15:39:00,11.3,-26.1,28.97,NW,320,3.1,5.4,16,0.00,,,0.00,VWS V13.01,2013-01-01 21:39:00,
2013-01-01 15:44:00,11.3,-26.1,28.97,North,357,5.4,8.1,16,0.00,,,0.00,VWS V13.01,2013-01-01 21:44:00,
2013-01-01 15:49:00,11.3,-26.1,28.97,North,6,4.0,5.8,16,0.00,,,0.00,VWS V13.01,2013-01-01 21:49:00,
2013-01-01 15:54:00,11.5,-26.0,28.97,NW,320,3.6,5.8,16,0.00,,,0.00,VWS V13.01,2013-01-01 21:54:00,
2013-01-01 15:59:00,11.5,-26.0,28.97,NNW,345,4.9,5.4,16,0.00,,,0.00,VWS V13.01,2013-01-01 21:59:00,
2013-01-01 16:04:00,11.7,-25.9,28.97,NNW,338,4.9,5.8,16,0.00,,,0.00,VWS V13.01,2013-01-01 22:04:00,
2013-01-01 16:09:00,11.7,-25.9,28.97,NW,322,6.3,6.3,16,0.00,,,0.00,VWS V13.01,2013-01-01 22:09:00,
2013-01-01 16:14:00,11.7,-25.9,28.97,NNW,338,3.1,5.8,16,0.00,,,0.00,VWS V13.01,2013-01-01 22:14:00,
2013-01-01 16:19:00,11.8,-25.7,28.97,North,0,3.6,5.8,16,0.00,,,0.00,VWS V13.01,2013-01-01 22:19:00,
2013-01-01 16:24:00,11.8,-25.7,28.97,North,10,5.4,5.4,16,0.00,,,0.00,VWS V13.01,2013-01-01 22:24:00,
2013-01-01 16:29:00,12.0,-25.5,28.97,North,353,2.7,4.9,16,0.00,,,0.00,VWS V13.01,2013-01-01 22:29:00,
2013-01-01 16:34:00,12.0,-25.5,28.97,NNW,341,5.8,5.8,16,0.00,,,0.00,VWS V13.01,2013-01-01 22:34:00,
2013-01-01 16:39:00,12.2,-25.4,28.97,North,0,3.1,3.1,16,0.00,,,0.00,VWS V13.01,2013-01-01 22:39:00,
2013-01-01 16:44:00,12.2,-25.4,28.97,North,0,2.7,4.9,16,0.00,,,0.00,VWS V13.01,2013-01-01 22:44:00,
2013-01-01 16:49:00,12.4,-25.2,28.97,North,353,3.6,4.0,16,0.00,,,0.00,VWS V13.01,2013-01-01 22:49:00,
2013-01-01 16:54:00,12.6,-25.1,28.97,NW,320,3.1,4.9,16,0.00,,,0.00,VWS V13.01,2013-01-01 22:54:00,
2013-01-01 16:59:00,12.6,-25.1,28.97,NNW,343,3.1,4.0,16,0.00,,,0.00,VWS V13.01,2013-01-01 22:59:00,
2013-01-01 17:04:00,12.6,-25.1,28.97,NNW,328,5.4,5.4,16,0.00,,,0.00,VWS V13.01,2013-01-01 23:04:00,
2013-01-01 17:09:00,12.6,-25.1,28.97,NW,320,4.9,4.9,16,0.00,,,0.00,VWS V13.01,2013-01-01 23:09:00,
2013-01-01 17:14:00,12.7,-25.0,28.97,NW,319,4.0,4.9,16,0.00,,,0.00,VWS V13.01,2013-01-01 23:14:00,
2013-01-01 17:19:00,12.7,-25.0,28.97,NW,320,3.6,4.0,16,0.00,,,0.00,VWS V13.01,2013-01-01 23:19:00,
2013-01-01 17:24:00,12.9,-24.8,28.97,NW,317,4.0,4.5,16,0.00,,,0.00,VWS V13.01,2013-01-01 23:24:00,
2013-01-01 17:29:00,13.1,-24.7,28.97,NNW,327,5.4,5.4,16,0.00,,,0.00,VWS V13.01,2013-01-01 23:29:00,
2013-01-01 17:34:00,13.3,-24.5,28.97,NW,323,5.8,5.8,16,0.00,,,0.00,VWS V13.01,2013-01-01 23:34:00,
2013-01-01 17:39:00,13.3,-24.5,28.94,NNW,334,5.8,5.8,16,0.00,,,0.00,VWS V13.01,2013-01-01 23:39:00,
2013-01-01 17:44:00,13.3,-24.5,28.94,NNW,331,4.9,5.8,16,0.00,,,0.00,VWS V13.01,2013-01-01 23:44:00,
2013-01-01 17:49:00,13.5,-24.4,28.94,NW,323,4.0,4.9,16,0.00,,,0.00,VWS V13.01,2013-01-01 23:49:00,
2013-01-01 17:54:00,13.5,-24.4,28.94,NNW,328,5.4,5.4,16,0.00,,,0.00,VWS V13.01,2013-01-01 23:54:00,
2013-01-01 17:59:00,13.6,-24.2,28.94,NW,318,4.9,4.9,16,0.00,,,0.00,VWS V13.01,2013-01-01 23:59:00,
2013-01-01 18:04:00,13.6,-24.2,28.94,NW,319,5.8,6.3,16,0.00,,,0.00,VWS V13.01,2013-01-02 00:04:00,
2013-01-01 18:09:00,13.8,-24.1,28.94,NW,317,3.6,5.4,16,0.00,,,0.00,VWS V13.01,2013-01-02 00:09:00,
2013-01-01 18:14:00,13.8,-24.1,28.94,NW,320,3.6,4.9,16,0.00,,,0.00,VWS V13.01,2013-01-02 00:14:00,
2013-01-01 18:19:00,14.0,-20.6,28.94,NNW,330,5.8,5.8,19,0.00,,,0.00,VWS V13.01,2013-01-02 00:19:00,
2013-01-01 18:24:00,14.2,-20.5,28.94,NNW,329,6.7,6.7,19,0.00,,,0.00,VWS V13.01,2013-01-02 00:24:00,
2013-01-01 18:29:00,14.2,-20.5,28.94,NW,308,3.6,5.8,19,0.00,,,0.00,VWS V13.01,2013-01-02 00:29:00,
2013-01-01 18:34:00,14.4,-20.4,28.94,NNW,329,5.8,5.8,19,0.00,,,0.00,VWS V13.01,2013-01-02 00:34:00,
2013-01-01 18:39:00,14.4,-20.4,28.94,NNW,334,5.8,5.8,19,0.00,,,0.00,VWS V13.01,2013-01-02 00:39:00,
2013-01-01 18:44:00,14.4,-20.4,28.94,NW,318,4.9,5.4,19,0.00,,,0.00,VWS V13.01,2013-01-02 00:44:00,
2013-01-01 18:49:00,14.5,-20.2,28.94,NNW,335,4.0,5.8,19,0.00,,,0.00,VWS V13.01,2013-01-02 00:49:00,
2013-01-01 18:54:00,14.5,-20.2,28.94,NNW,330,3.1,5.8,19,0.00,,,0.00,VWS V13.01,2013-01-02 00:54:00,
2013-01-01 18:59:00,14.5,-20.2,28.94,NW,321,5.8,8.1,19,0.00,,,0.00,VWS V13.01,2013-01-02 00:59:00,
2013-01-01 19:04:00,14.5,-20.2,28.94,NNW,336,6.3,6.7,19,0.00,,,0.00,VWS V13.01,2013-01-02 01:04:00,
2013-01-01 19:09:00,14.7,-20.0,28.91,North,353,5.4,6.3,19,0.00,,,0.00,VWS V13.01,2013-01-02 01:09:00,
2013-01-01 19:14:00,14.7,-20.0,28.91,NNW,336,5.8,6.3,19,0.00,,,0.00,VWS V13.01,2013-01-02 01:14:00,
2013-01-01 19:19:00,14.9,-19.9,28.91,WNW,298,5.8,5.8,19,0.00,,,0.00,VWS V13.01,2013-01-02 01:19:00,
2013-01-01 19:24:00,14.9,-19.9,28.91,NW,325,6.3,6.3,19,0.00,,,0.00,VWS V13.01,2013-01-02 01:24:00,
2013-01-01 19:29:00,14.9,-19.9,28.91,NW,314,4.0,4.0,19,0.00,,,0.00,VWS V13.01,2013-01-02 01:29:00,
2013-01-01 19:34:00,15.1,-19.8,28.91,NW,325,4.0,4.9,19,0.00,,,0.00,VWS V13.01,2013-01-02 01:34:00,
2013-01-01 19:39:00,15.3,-19.6,28.91,NW,325,4.0,4.0,19,0.00,,,0.00,VWS V13.01,2013-01-02 01:39:00,
2013-01-01 19:44:00,15.3,-19.6,28.91,NW,315,3.1,3.6,19,0.00,,,0.00,VWS V13.01,2013-01-02 01:44:00,
2013-01-01 19:49:00,15.4,-19.4,28.91,NW,322,3.6,3.6,19,0.00,,,0.00,VWS V13.01,2013-01-02 01:49:00,
2013-01-01 19:54:00,15.6,-19.3,28.91,NNW,330,2.7,5.4,19,0.00,,,0.00,VWS V13.01,2013-01-02 01:54:00,
2013-01-01 19:59:00,15.8,-19.1,28.91,NW,326,3.1,5.4,19,0.00,,,0.00,VWS V13.01,2013-01-02 01:59:00,
2013-01-01 20:04:00,16.0,-20.0,28.91,NW,317,5.8,5.8,18,0.00,,,0.00,VWS V13.01,2013-01-02 02:04:00,
2013-01-01 20:09:00,16.2,-19.9,28.91,NNW,335,5.4,5.4,18,0.00,,,0.00,VWS V13.01,2013-01-02 02:09:00,
2013-01-01 20:14:00,16.3,-16.8,28.91,North,353,2.7,4.0,21,0.00,,,0.00,VWS V13.01,2013-01-02 02:14:00,
2013-01-01 20:19:00,16.5,-16.6,28.91,NW,317,3.1,4.9,21,0.00,,,0.00,VWS V13.01,2013-01-02 02:19:00,
2013-01-01 20:24:00,16.5,-16.6,28.91,NNW,330,2.7,5.4,21,0.00,,,0.00,VWS V13.01,2013-01-02 02:24:00,
2013-01-01 20:29:00,16.5,-16.6,28.91,NW,316,3.6,4.9,21,0.00,,,0.00,VWS V13.01,2013-01-02 02:29:00,
2013-01-01 20:34:00,16.7,-16.4,28.91,NW,320,3.6,6.3,21,0.00,,,0.00,VWS V13.01,2013-01-02 02:34:00,
2013-01-01 20:39:00,16.7,-16.4,28.91,NNW,342,3.6,5.4,21,0.00,,,0.00,VWS V13.01,2013-01-02 02:39:00,
2013-01-01 20:44:00,16.7,-16.4,28.91,NNW,327,3.1,3.6,21,0.00,,,0.00,VWS V13.01,2013-01-02 02:44:00,
2013-01-01 20:49:00,16.9,-16.3,28.91,NNW,337,2.7,4.9,21,0.00,,,0.00,VWS V13.01,2013-01-02 02:49:00,
2013-01-01 20:54:00,16.9,-16.3,28.91,NW,326,5.4,5.4,21,0.00,,,0.00,VWS V13.01,2013-01-02 02:54:00,
2013-01-01 20:59:00,17.1,-16.1,28.91,NW,326,4.9,4.9,21,0.00,,,0.00,VWS V13.01,2013-01-02 02:59:00,
2013-01-01 21:04:00,17.1,-16.1,28.91,NNW,333,4.9,4.9,21,0.00,,,0.00,VWS V13.01,2013-01-02 03:04:00,
2013-01-01 21:09:00,17.4,-15.8,28.91,NNW,336,3.6,4.0,21,0.00,,,0.00,VWS V13.01,2013-01-02 03:09:00,
2013-01-01 21:14:00,17.6,-15.7,28.91,NW,315,3.1,4.0,21,0.00,,,0.00,VWS V13.01,2013-01-02 03:14:00,
2013-01-01 21:19:00,17.8,-16.5,28.91,NNW,337,2.7,2.7,20,0.00,,,0.00,VWS V13.01,2013-01-02 03:19:00,
2013-01-01 21:24:00,18.1,-13.4,28.88,WNW,298,2.7,4.0,23,0.00,,,0.00,VWS V13.01,2013-01-02 03:24:00,
2013-01-01 21:29:00,18.5,-13.1,28.88,NNE,26,0.0,0.0,23,0.00,,,0.00,VWS V13.01,2013-01-02 03:29:00,
2013-01-01 21:34:00,18.7,-13.0,28.88,North,357,4.0,4.0,23,0.00,,,0.00,VWS V13.01,2013-01-02 03:34:00,
2013-01-01 21:39:00,18.9,-12.8,28.88,NE,34,5.8,5.8,23,0.00,,,0.00,VWS V13.01,2013-01-02 03:39:00,
2013-01-01 21:44:00,19.0,-12.6,28.88,North,357,5.8,5.8,23,0.00,,,0.00,VWS V13.01,2013-01-02 03:44:00,
2013-01-01 21:49:00,19.0,-12.6,28.88,North,353,6.3,6.3,23,0.00,,,0.00,VWS V13.01,2013-01-02 03:49:00,
2013-01-01 21:54:00,19.2,-12.5,28.88,NNE,33,8.3,8.3,23,0.00,,,0.00,VWS V13.01,2013-01-02 03:54:00,
2013-01-01 21:59:00,19.2,-12.5,28.88,North,357,0.0,2.7,23,0.00,,,0.00,VWS V13.01,2013-01-02 03:59:00,
2013-01-01 22:04:00,19.2,-12.5,28.88,NNW,328,3.1,5.4,23,0.00,,,0.00,VWS V13.01,2013-01-02 04:04:00,
2013-01-01 22:09:00,19.2,-12.5,28.88,NNE,27,3.1,3.1,23,0.00,,,0.00,VWS V13.01,2013-01-02 04:09:00,
2013-01-01 22:14:00,19.2,-12.5,28.88,ENE,61,3.1,4.0,23,0.00,,,0.00,VWS V13.01,2013-01-02 04:14:00,
2013-01-01 22:19:00,19.4,-12.3,28.88,NNW,329,3.6,3.6,23,0.00,,,0.00,VWS V13.01,2013-01-02 04:19:00,
2013-01-01 22:24:00,19.4,-12.3,28.88,NNW,333,3.1,3.6,23,0.00,,,0.00,VWS V13.01,2013-01-02 04:24:00,
2013-01-01 22:29:00,19.4,-12.3,28.88,NNW,327,5.8,5.8,23,0.00,,,0.00,VWS V13.01,2013-01-02 04:29:00,
2013-01-01 22:34:00,19.4,-12.3,28.88,NNW,346,5.4,5.4,23,0.00,,,0.00,VWS V13.01,2013-01-02 04:34:00,
2013-01-01 22:39:00,19.4,-12.3,28.88,North,0,7.6,7.6,23,0.00,,,0.00,VWS V13.01,2013-01-02 04:39:00,
2013-01-01 22:44:00,19.4,-12.3,28.88,NW,311,3.6,3.6,23,0.00,,,0.00,VWS V13.01,2013-01-02 04:44:00,
2013-01-01 22:49:00,19.4,-12.3,28.88,NW,319,5.8,5.8,23,0.00,,,0.00,VWS V13.01,2013-01-02 04:49:00,
2013-01-01 22:54:00,19.4,-12.3,28.85,North,1,2.7,4.0,23,0.00,,,0.00,VWS V13.01,2013-01-02 04:54:00,
2013-01-01 22:59:00,19.4,-12.3,28.85,NNW,329,0.0,0.0,23,0.00,,,0.00,VWS V13.01,2013-01-02 04:59:00,
2013-01-01 23:00:00,19.4,-12.3,28.85,North,8,8.1,8.1,23,0.00,,,0.00,VWS V13.01,2013-01-02 05:00:00,
2013-01-01 23:02:00,19.4,-12.3,28.85,NNE,23,4.0,6.3,23,0.00,,,0.00,VWS V13.01,2013-01-02 05:02:00,
2013-01-01 23:03:00,19.4,-12.3,28.85,NNW,344,4.9,5.4,23,0.00,,,0.00,VWS V13.01,2013-01-02 05:03:00,
2013-01-01 23:08:00,19.4,-12.3,28.85,NNW,339,3.1,3.6,23,0.00,,,0.00,VWS V13.01,2013-01-02 05:08:00,
2013-01-01 23:13:00,19.4,-12.3,28.85,North,357,5.4,5.8,23,0.00,,,0.00,VWS V13.01,2013-01-02 05:13:00,
2013-01-01 23:18:00,19.4,-12.3,28.85,NNE,33,6.3,8.7,23,0.00,,,0.00,VWS V13.01,2013-01-02 05:18:00,
2013-01-01 23:23:00,19.4,-12.3,28.85,North,357,3.1,3.1,23,0.00,,,0.00,VWS V13.01,2013-01-02 05:23:00,
2013-01-01 23:28:00,19.4,-12.3,28.85,North,357,7.6,8.1,23,0.00,,,0.00,VWS V13.01,2013-01-02 05:28:00,
2013-01-01 23:33:00,19.4,-12.3,28.85,NNW,335,5.4,5.4,23,0.00,,,0.00,VWS V13.01,2013-01-02 05:33:00,
2013-01-01 23:38:00,19.4,-10.7,28.85,NW,314,2.7,4.0,25,0.00,,,0.00,VWS V13.01,2013-01-02 05:38:00,
2013-01-01 23:43:00,19.4,-12.3,28.85,NNW,333,6.3,6.3,23,0.00,,,0.00,VWS V13.01,2013-01-02 05:43:00,
2013-01-01 23:48:00,19.4,-12.3,28.85,North,357,3.1,5.4,23,0.00,,,0.00,VWS V13.01,2013-01-02 05:48:00,
2013-01-01 23:53:00,19.6,-13.1,28.85,North,0,4.9,4.9,22,0.00,,,0.00,VWS V13.01,2013-01-02 05:53:00,
2013-01-01 23:58:00,19.6,-13.1,28.85,NE,39,3.6,3.6,22,0.00,,,0.00,VWS V13.01,2013-01-02 05:58:00,